Погода в Уануко

Перу     9°56′11″S   76°14′19″W
темп.,
°C
ветер,
м/с
пор.,
м/с
влажн.,
%
обл.,
%
осадки,
мм/ч
давл.,
гПа
погр.,
м
8 марта, пн
пн801:00+9зсз1196100 1.1 1018103
04:00+9ююз1194100 0.0 101736
07:00+11вюв0181100 0.4 101865
10:00+15св3267100 0.3 1018775
13:00+17св4460100 1.1 10141212
16:00+16св4467100 2.8 1012933
19:00+11св2395100 3.4 101562
22:00+10с1297100 0.9 101885
9 марта, вт
вт901:00+10ссз0093100 1.0 1016112
04:00+10ю1191100 0.1 101547
07:00+11св1187100 0.3 101755
10:00+15св4371100 1.3 1017706
13:00+13св447696 3.8 1015675
16:00+13ссв337596 0.9 1013636
19:00+9с129288 1.1 101660
22:00+10юв1187100 0.3 101980
10 марта, ср
ср1001:00+10ююв1282100 0.6 1018135
04:00+10ююв0184100 0.5 101664
07:00+10св1186100 0.6 1018118
10:00+12св337899 0.4 1019593
13:00+11св3383100 1.5 1017454
16:00+12ссв447899 0.6 1014621
19:00+9ссв119298 0.8 1016111
22:00+9ююв1192100 0.0 101830
11 марта, чт
чт1101:00+9ююв1188100 0.1 101752
04:00+8св1191100 0.1 101645
07:00+9ссз118899 0.1 1017105
10:00+12св337497 0.4 1018710
13:00+15св436288 1.1 10141024
16:00+15св336741 1.3 1011892
19:00+10св239353 2.5 101363
22:00+9св129799 0.3 101773
12 марта, пт
пт1201:00+9с1196100 1.0 101670
04:00+8всв009398 0.4 101633
07:00+9св018494 0.5 101865
10:00+14ссв326758 0.2 1017810
13:00+16св435729 1.1 10141318
16:00+15св446442 1.3 10111028
19:00+10ссв239546 2.2 1014101
22:00+8сз019671 0.5 101852